Skip Page Navigation
NASA JPL Caltech
NASA Logo - Jet Propulsion Laboratory + View the NASA Portal
+ Center for Near-Earth Object Studies
JPL Home Earth Solar System Stars & Galaxies Technology
JPL Solar System Dynamics
BODIES ORBITS EPHEMERIDES TOOLS PHYSICAL DATA DISCOVERY FAQ SITE MAP
IMPORTANT: The SSD Announcement email list is now available. Major changes are coming in the near future, including possible hostname and/or URL changes. To be notified of such changes, subscribe to this email list.

Please visit this page for more details.


JPL Small-Body Database Browser
Search: [ help ]  
357760 (2005 SB109)
Classification: Main-belt Asteroid          SPK-ID: 2357760
Ephemeris | Orbit Diagram | Orbital Elements | Mission Design | Physical Parameters | Discovery Circumstances | Close-Approach Data ]

[ show orbit diagram ]
Orbital Elements at Epoch 2458600.5 (2019-Apr-27.0) TDB
Reference: JPL 13 (heliocentric ecliptic J2000)
 Element Value Uncertainty (1-sigma)   Units 
e .1750733993834393 5.1267e-08  
a 3.127179649638243 4.0108e-08 au
q 2.579693677893363 1.5349e-07 au
i 14.16436074953621 8.292e-06 deg
node 14.40951747780083 2.3689e-05 deg
peri 81.21287183696953 3.3913e-05 deg
M 107.5519140662572 2.333e-05 deg
tp 2457997.047186116202
(2017-Aug-31.54718612)
0.0001297 TDB
period 2019.889788891483
5.53
3.8859e-05
1.064e-07
d
yr
n .1782275458690091 3.4288e-09 deg/d
Q 3.674665621383122 4.713e-08 au
  Orbit Determination Parameters
   # obs. used (total)      224  
   data-arc span      6263 days (17.15 yr)  
   first obs. used      2002-04-09  
   last obs. used      2019-06-02  
   planetary ephem.      DE431  
   SB-pert. ephem.      SB431-N16  
   condition code      0  
   norm. resid. RMS      .52527  
   source      ORB  
   producer      Otto Matic  
   solution date      2019-Sep-24 06:43:04  

Additional Information
 Earth MOID = 1.64257 au 
 Jupiter MOID = 1.75578 au 
 T_jup = 3.144 
[ show covariance matrix ]

Ephemeris | Orbit Diagram | Orbital Elements | Mission Design | Physical Parameters | Discovery Circumstances | Close-Approach Data ]

Physical Parameter Table
Parameter Symbol Value Units Sigma Reference Notes
absolute magnitude H 15.6   n/a MPO437510  

357760 (2005 SB109)          Discovered 2005-Sep-26 by Spacewatch at Kitt Peak
Reference: 20130327/Numbers.arcLast Updated: 2013-03-29

[ show close-approach data ]
Ephemeris | Orbit Diagram | Orbital Elements | Mission Design | Physical Parameters | Discovery Circumstances | Close-Approach Data ]
ABOUT SSD CREDITS/AWARDS PRIVACY/COPYRIGHT GLOSSARY LINKS
FirstGov 2019-Dec-13 08:48 UT
(server date/time)  
NASA Home Page
Site Manager:   Ryan S. Park
Webmaster  Alan B. Chamberlin